Wind_Speed
42 42 42 42 42 42 41 40 40 40 39 39 38 38 37 37 37 37 37 37 37 36 36 36 36 35 35 36 36 35 35 36 37 36 36 36 36 36 36 37 37 38 38
41 42 42 41 41 41 41 41 40 39 39 39 38 38 37 37 37 38 38 38 38 37 37 37 36 36 35 36 37 37 37 37 37 37 36 37 37 36 37 37 38 39 40
41 41 41 41 41 41 42 41 41 40 40 39 39 38 38 38 38 38 38 38 38 38 38 38 38 38 38 37 37 37 37 37 37 37 37 38 38 37 37 38 39 40 41
39 40 41 41 41 41 41 41 41 41 41 39 38 38 38 38 38 38 38 38 38 38 38 38 38 37 38 39 38 38 37 37 38 38 38 39 39 39 38 38 39 40 41
37 38 39 40 40 40 40 40 41 40 40 40 38 38 39 38 38 38 38 38 38 38 38 38 38 38 38 38 38 38 38 38 38 38 38 39 39 39 39 39 39 40 41
35 36 37 38 38 38 39 40 40 40 38 38 39 39 38 38 38 38 38 38 38 39 39 38 38 39 39 38 39 40 39 38 38 38 38 39 39 40 40 40 39 40 41
33 34 35 35 36 37 38 39 39 40 40 38 38 38 38 38 39 39 38 39 39 39 39 39 39 39 39 39 40 40 40 39 39 39 39 40 40 41 41 41 41 41 40
31 32 33 33 34 35 36 38 39 39 40 39 39 38 38 38 38 38 38 39 39 40 40 41 41 40 40 40 41 41 41 41 40 40 39 40 41 41 41 41 41 41 41
30 31 32 32 33 34 34 36 37 37 38 38 38 38 38 38 38 38 38 39 39 39 41 41 41 41 41 41 41 42 42 41 41 41 40 40 40 40 41 41 42 42 41
29 30 31 31 32 32 33 35 36 36 36 36 37 37 38 38 38 38 38 39 40 40 41 42 42 42 42 42 42 42 43 43 43 42 41 41 41 40 40 41 42 42 42
29 28 29 31 31 32 33 34 35 35 35 35 36 36 37 37 37 38 39 39 39 40 40 41 41 41 41 41 42 41 41 42 43 42 42 42 42 41 42 42 42 42 42
29 29 29 30 31 31 32 33 33 33 34 34 35 35 36 36 36 38 39 40 40 40 40 40 40 40 40 40 40 41 41 42 43 43 43 42 42 42 42 43 43 42 42
29 29 30 30 30 30 31 31 32 32 33 34 34 35 35 36 36 37 38 39 40 40 40 39 39 39 39 39 40 41 41 41 42 42 42 42 42 42 42 43 42 42 41
28 29 29 30 30 30 31 31 31 32 32 33 34 34 35 35 37 38 39 39 39 40 40 39 39 39 39 40 40 40 40 40 41 41 41 41 42 42 42 42 42 42 41
29 29 29 30 30 31 31 31 31 31 31 32 33 35 35 36 37 38 38 39 39 39 39 39 39 39 40 40 40 39 40 40 40 40 40 40 41 42 42 42 41 42 42
29 29 30 30 30 30 30 30 30 30 30 31 32 34 35 36 37 37 37 38 38 39 39 39 39 39 39 39 39 40 39 40 40 40 40 41 42 42 42 42 41 41 41
30 30 30 31 31 30 30 31 31 30 30 31 31 32 34 35 35 35 36 36 37 38 38 38 39 39 39 39 39 40 39 39 39 40 41 41 41 41 41 41 41 41 41
31 31 31 31 31 31 31 31 32 31 31 31 31 31 32 33 33 34 34 35 36 37 37 37 38 38 38 38 38 39 39 39 40 40 41 41 41 41 41 40 40 39 39
32 32 31 31 31 31 31 31 32 32 32 31 30 30 31 32 32 33 33 34 35 36 36 37 37 37 37 37 38 39 39 39 39 40 40 41 41 40 40 39 38 38 38
30 31 31 31 31 31 31 32 31 31 31 31 31 31 31 31 31 31 32 32 33 34 34 35 35 35 36 36 37 38 38 38 38 39 39 40 39 38 38 38 37 37 37
28 29 30 30 30 30 31 30 31 31 31 31 31 31 31 31 32 31 31 31 31 32 32 32 33 33 34 35 36 36 37 37 37 37 37 37 37 37 36 36 36 36 36
28 28 29 30 30 30 30 29 29 30 31 31 31 31 31 32 31 31 30 30 30 31 31 32 32 32 34 35 36 37 37 37 37 36 35 35 35 36 36 36 36 36 35
29 29 29 30 30 30 30 29 29 30 31 31 31 31 31 30 30 30 30 29 30 30 30 30 30 31 33 34 35 35 35 35 35 35 35 34 34 35 35 35 35 34 34
28 29 29 30 30 30 30 30 30 30 30 31 31 31 31 30 30 29 29 29 29 30 30 31 31 31 32 32 32 32 33 33 33 33 34 34 34 34 33 33 33 32 32
28 28 29 29 29 30 30 30 31 30 30 31 31 31 31 31 30 29 29 30 30 29 29 30 31 31 30 30 31 31 31 31 31 32 33 33 32 32 32 31 31 31 32
27 28 28 28 28 29 29 29 30 30 30 30 30 30 30 30 30 29 28 28 29 30 30 30 31 30 30 30 30 30 30 30 31 30 30 30 30 30 30 30 31 31 31
Wind_Direction
249 248 248 249 249 249 250 250 252 253 252 252 253 254 254 254 253 253 253 254 254 255 256 257 257 258 258 258 259 261 263 265 267 268 269 269 271 273 273 274 275 277 279
250 248 248 248 249 249 250 250 251 251 251 251 252 253 253 254 253 253 253 253 254 254 255 256 256 258 258 258 259 261 263 265 265 266 268 268 270 272 274 275 276 277 280
251 250 248 248 249 250 250 250 250 251 251 250 251 252 252 252 252 252 253 253 253 254 255 257 258 259 259 260 261 262 263 265 266 266 267 268 269 272 275 276 276 278 280
252 251 249 249 250 250 250 250 250 250 249 249 249 250 251 252 252 252 252 253 253 255 256 257 259 259 260 262 262 263 264 265 266 266 267 270 271 272 275 277 278 279 281
252 252 250 249 250 250 250 250 249 249 248 247 247 249 250 252 251 251 252 252 253 254 255 257 258 260 261 263 263 264 265 267 267 268 269 271 272 273 277 279 280 281 281
252 251 251 250 250 249 248 249 248 247 246 246 246 248 249 250 250 251 252 253 253 255 255 257 259 260 261 262 263 264 265 267 268 269 271 272 274 275 278 279 281 282 282
253 250 250 250 249 249 249 250 250 249 247 247 246 247 248 250 250 251 252 254 254 255 256 258 260 261 261 262 263 265 265 267 268 269 270 272 275 277 280 280 281 282 282
255 252 250 250 250 249 249 251 250 249 248 247 247 248 249 250 251 251 252 254 255 256 257 258 260 261 261 262 263 265 266 266 267 269 271 273 274 276 279 281 281 282 282
255 252 252 252 251 250 250 250 249 248 248 248 249 249 250 251 252 253 253 255 256 257 257 259 260 261 261 263 264 265 265 265 267 269 271 272 274 275 278 280 281 282 282
255 253 253 252 250 250 250 251 251 250 249 249 250 251 252 252 254 254 256 255 255 257 257 259 261 262 262 263 264 266 266 267 268 269 271 272 274 275 278 280 281 282 281
255 254 253 252 252 252 251 252 251 250 250 250 250 252 253 253 254 255 255 255 256 257 258 260 261 261 261 263 265 266 268 269 270 270 271 273 274 275 277 280 282 282 281
254 253 253 252 252 253 253 252 252 250 250 251 252 253 253 254 255 255 255 255 256 257 258 260 259 259 261 263 264 266 268 270 271 272 273 275 275 276 278 280 282 281 281
254 252 253 253 253 253 253 251 251 251 251 252 253 254 255 256 257 257 256 256 256 257 258 259 260 260 262 265 266 267 268 271 272 273 274 275 276 277 279 281 281 281 281
253 251 252 253 253 253 253 252 253 254 253 253 253 254 256 258 258 258 258 257 258 258 259 260 261 262 264 266 266 267 269 271 272 273 274 275 276 278 280 281 281 281 281
254 253 253 254 255 255 254 253 254 254 254 254 255 255 256 258 258 260 259 259 259 259 260 261 262 264 265 267 267 267 270 271 272 272 273 274 277 278 279 281 281 281 281
255 254 254 255 256 256 255 254 255 255 256 257 258 258 258 259 260 261 260 260 260 260 260 262 263 265 266 267 267 267 269 270 271 272 273 275 277 278 279 280 281 281 280
256 256 257 257 256 257 257 255 255 257 259 259 260 261 261 261 262 261 261 261 261 261 261 263 265 266 266 267 266 266 269 270 271 272 273 274 275 277 278 280 280 280 280
257 257 258 257 256 256 257 257 257 259 260 261 262 262 262 262 264 264 263 262 262 262 263 264 265 266 266 267 267 267 269 270 272 274 274 274 275 277 278 278 279 280 280
258 257 257 257 255 255 257 257 260 260 261 262 263 263 263 263 264 265 264 264 264 264 264 265 265 265 265 265 266 268 270 271 273 274 274 275 275 276 277 278 278 278 278
259 257 257 257 256 257 258 259 260 261 260 260 262 264 264 265 265 266 266 266 266 265 265 265 265 265 265 265 268 269 270 271 273 275 275 275 275 275 276 277 276 276 276
259 258 256 256 257 258 259 260 260 260 260 260 262 263 264 265 265 266 266 266 266 266 265 264 265 266 267 267 269 271 271 272 274 274 274 273 274 274 275 275 275 275 275
259 259 257 257 258 260 260 260 261 261 261 261 262 264 265 265 264 265 265 266 267 267 265 265 266 268 269 270 270 272 273 272 273 273 272 272 273 274 275 275 275 275 276
261 261 259 258 259 260 261 260 261 262 262 262 263 264 264 264 264 264 264 266 266 266 266 266 268 269 271 271 272 272 273 272 272 271 270 271 272 274 275 276 275 275 275
262 262 261 260 260 260 261 261 261 262 262 261 262 263 264 263 264 264 263 265 266 267 267 266 268 270 272 272 273 274 273 272 272 271 271 272 273 274 275 275 274 274 274
261 261 260 260 260 260 262 262 262 262 262 262 261 262 263 263 263 264 264 264 265 267 267 267 268 270 272 273 274 274 274 273 273 272 271 271 272 273 274 274 274 274 274
260 259 258 259 259 259 260 262 263 262 263 262 262 262 262 263 263 263 264 265 267 267 268 268 268 269 271 272 273 273 274 274 274 274 273 272 272 273 274 274 275 276 277
Height
5690 5693 5697 5700 5703 5707 5710 5713 5715 5718 5720 5722 5725 5727 5729 5731 5733 5735 5737 5739 5741 5743 5745 5746 5748 5749 5751 5752 5754 5755 5756 5757 5758 5759 5759 5760 5760 5760 5760 5760 5759 5758 5757
5679 5682 5686 5690 5693 5697 5700 5703 5705 5707 5710 5713 5715 5717 5720 5722 5724 5726 5728 5730 5733 5734 5736 5738 5740 5741 5742 5744 5745 5746 5747 5748 5749 5750 5750 5751 5753 5752 5751 5751 5750 5749 5748
5668 5672 5675 5679 5682 5686 5689 5692 5695 5697 5699 5703 5705 5708 5710 5712 5715 5717 5720 5722 5724 5726 5728 5730 5731 5733 5734 5735 5736 5737 5738 5739 5740 5740 5742 5742 5743 5743 5743 5742 5741 5740 5739
5657 5661 5665 5668 5672 5675 5677 5681 5684 5687 5690 5692 5695 5698 5701 5704 5706 5709 5711 5713 5715 5717 5719 5721 5722 5724 5725 5726 5727 5728 5729 5730 5731 5731 5732 5733 5733 5734 5734 5734 5732 5730 5729
5647 5651 5654 5658 5661 5664 5667 5670 5673 5676 5679 5683 5685 5688 5691 5694 5697 5699 5702 5704 5706 5708 5710 5712 5714 5715 5716 5717 5718 5720 5721 5721 5722 5722 5723 5723 5723 5723 5724 5724 5723 5721 5719
5638 5641 5644 5648 5651 5654 5657 5660 5662 5666 5669 5672 5675 5678 5681 5684 5687 5690 5692 5695 5697 5699 5701 5703 5705 5706 5707 5708 5709 5710 5711 5712 5713 5713 5713 5713 5714 5713 5713 5713 5713 5711 5710
5629 5632 5635 5638 5641 5644 5647 5650 5653 5656 5659 5662 5665 5668 5672 5675 5678 5681 5683 5686 5688 5690 5692 5693 5695 5697 5698 5699 5700 5701 5702 5702 5703 5704 5704 5704 5704 5703 5703 5703 5702 5702 5700
5621 5623 5627 5630 5632 5635 5638 5640 5643 5646 5649 5652 5656 5659 5662 5665 5668 5671 5674 5676 5678 5680 5682 5684 5685 5687 5688 5689 5690 5691 5692 5693 5694 5694 5694 5694 5694 5693 5693 5692 5692 5691 5690
5613 5615 5618 5621 5624 5627 5629 5631 5634 5637 5640 5643 5646 5649 5652 5656 5659 5661 5664 5666 5668 5670 5672 5673 5675 5676 5678 5679 5680 5681 5682 5683 5684 5684 5684 5684 5684 5683 5682 5681 5680 5680 5679
5605 5608 5611 5613 5616 5618 5620 5623 5625 5628 5631 5634 5637 5640 5643 5646 5649 5652 5654 5656 5658 5659 5661 5663 5664 5666 5667 5669 5670 5671 5672 5673 5673 5674 5674 5674 5673 5673 5672 5671 5670 5668 5667
5598 5601 5603 5605 5608 5610 5612 5614 5617 5619 5622 5625 5629 5632 5634 5637 5639 5642 5644 5646 5648 5650 5651 5653 5654 5655 5657 5658 5660 5661 5662 5662 5663 5663 5663 5663 5662 5662 5661 5660 5659 5658 5656
5591 5593 5595 5597 5600 5602 5604 5606 5608 5611 5614 5617 5620 5623 5625 5628 5630 5632 5634 5636 5638 5640 5641 5643 5644 5645 5646 5648 5649 5650 5651 5652 5652 5652 5652 5651 5651 5651 5650 5649 5648 5647 5645
5584 5585 5587 5590 5592 5594 5596 5598 5600 5603 5606 5609 5611 5614 5616 5618 5620 5622 5624 5626 5627 5629 5631 5632 5634 5635 5636 5637 5638 5640 5641 5641 5641 5641 5641 5640 5640 5639 5639 5638 5637 5635 5634
5576 5578 5580 5582 5584 5586 5588 5591 5593 5595 5598 5600 5602 5605 5607 5609 5611 5612 5614 5615 5617 5619 5621 5622 5624 5625 5626 5627 5627 5629 5629 5630 5630 5630 5629 5629 5629 5628 5627 5626 5625 5624 5623
5569 5571 5573 5574 5576 5579 5581 5583 5585 5587 5589 5591 5593 5595 5597 5599 5601 5602 5603 5605 5607 5608 5610 5612 5613 5614 5615 5616 5616 5617 5618 5618 5619 5618 5618 5618 5617 5617 5616 5615 5614 5612 5611
5561 5563 5565 5567 5569 5571 5573 5575 5577 5579 5581 5583 5584 5586 5587 5589 5591 5592 5593 5595 5596 5598 5599 5601 5602 5603 5604 5604 5605 5606 5607 5607 5607 5607 5607 5607 5606 5605 5604 5603 5602 5601 5600
5553 5555 5557 5559 5561 5563 5565 5567 5569 5571 5572 5574 5575 5577 5578 5580 5581 5582 5583 5584 5585 5587 5589 5590 5591 5592 5593 5593 5594 5594 5595 5596 5596 5596 5595 5595 5594 5593 5593 5592 5591 5589 5588
5545 5547 5549 5551 5552 5554 5556 5558 5560 5562 5564 5565 5566 5568 5569 5570 5571 5572 5573 5574 5575 5576 5578 5579 5580 5581 5581 5582 5583 5583 5584 5585 5585 5584 5584 5583 5582 5582 5581 5580 5579 5578 5577
5537 5539 5541 5542 5544 5546 5548 5550 5552 5553 5555 5556 5558 5559 5560 5561 5562 5563 5563 5564 5565 5566 5567 5568 5569 5570 5571 5571 5572 5572 5573 5573 5573 5573 5572 5571 5571 5570 5569 5569 5568 5567 5566
5529 5531 5532 5534 5536 5537 5539 5541 5543 5545 5546 5548 5549 5550 5551 5552 5553 5554 5554 5555 5555 5556 5557 5558 5558 5559 5560 5560 5561 5561 5562 5562 5562 5561 5561 5560 5559 5559 5558 5557 5557 5556 5556
5521 5522 5524 5526 5527 5529 5531 5532 5534 5536 5537 5538 5540 5541 5542 5543 5544 5545 5545 5546 5546 5547 5547 5548 5549 5549 5550 5550 5550 5550 5551 5550 5550 5550 5550 5549 5549 5548 5548 5547 5547 5546 5545
5513 5514 5516 5517 5519 5521 5522 5524 5526 5527 5528 5529 5531 5532 5533 5534 5535 5536 5536 5536 5537 5537 5538 5538 5539 5539 5539 5540 5540 5540 5540 5539 5539 5539 5539 5539 5539 5538 5537 5537 5536 5535 5535
5505 5506 5507 5509 5511 5512 5514 5515 5517 5518 5519 5520 5522 5523 5524 5525 5526 5526 5527 5527 5527 5528 5528 5529 5529 5530 5530 5530 5529 5529 5528 5528 5528 5528 5529 5529 5528 5528 5527 5526 5526 5525 5525
5496 5498 5499 5501 5502 5504 5505 5506 5508 5509 5510 5511 5513 5514 5515 5516 5516 5517 5517 5518 5518 5519 5519 5520 5520 5520 5520 5520 5519 5518 5518 5518 5518 5518 5518 5518 5518 5518 5517 5517 5516 5515 5515
5488 5489 5490 5492 5494 5495 5496 5498 5499 5500 5501 5502 5503 5504 5505 5506 5507 5508 5508 5509 5509 5509 5510 5510 5510 5510 5510 5510 5509 5508 5508 5508 5508 5508 5508 5509 5508 5508 5508 5507 5506 5506 5505
5479 5480 5482 5483 5485 5487 5488 5489 5489 5490 5491 5493 5494 5495 5496 5497 5498 5498 5499 5499 5500 5500 5500 5500 5500 5500 5500 5499 5499 5499 5499 5499 5499 5499 5499 5499 5499 5499 5498 5498 5497 5496 5495